| time (UTC) | temp F | wind direction | speed knots | gust knots | rain 1hr in | rain 24hr in | rain mn in | humidity % | barometer mb |
| 20260504231536 | 80 | 104 | 3.5 | 13.0 | 0.00 | 0.00 | 0.00 | 59 | 984.1 |
| 20260504230035 | 80 | 212 | 5.2 | 13.0 | 0.00 | 0.00 | 0.00 | 58 | 984.4 |
| 20260504224532 | 82 | 136 | 3.5 | 13.0 | 0.00 | 0.00 | 0.00 | 57 | 984.5 |
| 20260504223037 | 81 | 264 | 4.3 | 12.2 | 0.00 | 0.00 | 0.00 | 57 | 984.6 |
| 20260504221527 | 82 | 174 | 4.3 | 15.6 | 0.00 | 0.00 | 0.00 | 56 | 984.5 |
| 20260504220030 | 81 | 207 | 5.2 | 14.8 | 0.00 | 0.00 | 0.00 | 56 | 984.7 |
| 20260504214523 | 82 | 237 | 7.0 | 13.9 | 0.00 | 0.00 | 0.00 | 56 | 985.0 |
| 20260504213025 | 82 | 152 | 6.1 | 12.2 | 0.00 | 0.00 | 0.00 | 55 | 985.2 |
| 20260504211529 | 83 | 72 | 3.5 | 13.0 | 0.00 | 0.00 | 0.00 | 55 | 985.3 |
| 20260504210013 | 82 | 210 | 2.6 | 13.0 | 0.00 | 0.00 | 0.00 | 56 | 985.7 |
| 20260504204511 | 81 | 265 | 5.2 | 13.9 | 0.00 | 0.00 | 0.00 | 56 | 986.0 |
| 20260504203008 | 82 | 83 | 4.3 | 9.6 | 0.00 | 0.00 | 0.00 | 54 | 986.3 |
| 20260504201504 | 82 | 96 | 3.5 | 10.4 | 0.00 | 0.00 | 0.00 | 55 | 986.6 |
| 20260504200003 | 81 | 182 | 2.6 | 11.3 | 0.00 | 0.00 | 0.00 | 55 | 986.9 |
| 20260504194604 | 81 | 238 | 5.2 | 12.2 | 0.00 | 0.00 | 0.00 | 54 | 987.3 |
| 20260504193107 | 81 | 149 | 4.3 | 15.6 | 0.00 | 0.00 | 0.00 | 54 | 987.3 |
| 20260504191609 | 80 | 217 | 3.5 | 10.4 | 0.00 | 0.00 | 0.00 | 55 | 987.5 |
| 20260504190105 | 80 | 247 | 3.5 | 14.8 | 0.00 | 0.00 | 0.00 | 55 | 988.0 |
| 20260504184553 | 80 | 219 | 5.2 | 13.0 | 0.00 | 0.00 | 0.00 | 54 | 988.1 |
| 20260504183046 | 79 | 250 | 4.3 | 13.0 | 0.00 | 0.00 | 0.00 | 55 | 988.4 |
| 20260504181547 | 79 | 178 | 4.3 | 13.9 | 0.00 | 0.00 | 0.00 | 56 | 988.4 |
| 20260504180040 | 78 | 208 | 6.1 | 11.3 | 0.00 | 0.00 | 0.00 | 56 | 988.7 |
| 20260504174543 | 78 | 177 | 4.3 | 13.9 | 0.00 | 0.00 | 0.00 | 55 | 989.0 |
| 20260504173035 | 77 | 160 | 2.6 | 10.4 | 0.00 | 0.00 | 0.00 | 57 | 989.1 |
| 20260504171534 | 76 | 187 | 3.5 | 13.9 | 0.00 | 0.00 | 0.00 | 58 | 989.3 |
| 20260504081508 | 66 | 229 | 1.7 | 6.1 | 0.00 | 0.00 | 0.00 | 60 | 991.9 |
| 20260504044537 | 70 | 172 | 0.9 | 5.2 | 0.00 | 0.00 | 0.00 | 50 | 993.9 |
| 20260504043041 | 70 | 202 | 1.7 | 6.1 | 0.00 | 0.00 | 0.00 | 49 | 994.0 |
| 20260504041536 | 70 | 121 | 0.9 | 4.3 | 0.00 | 0.00 | 0.00 | 49 | 994.2 |
| 20260504040038 | 70 | 103 | 0.9 | 6.1 | 0.00 | 0.00 | 0.00 | 48 | 994.1 |
| 20260504034535 | 71 | 171 | 1.7 | 6.1 | 0.00 | 0.00 | 0.00 | 48 | 993.9 |
| 20260504033034 | 71 | 199 | 1.7 | 5.2 | 0.00 | 0.00 | 0.00 | 49 | 994.0 |
| 20260504031541 | 72 | 226 | 1.7 | 7.8 | 0.00 | 0.00 | 0.00 | 47 | 994.0 |
| 20260504030035 | 72 | 222 | 0.9 | 6.1 | 0.00 | 0.00 | 0.00 | 46 | 993.8 |
| 20260504024534 | 73 | 203 | 1.7 | 7.8 | 0.00 | 0.00 | 0.00 | 45 | 993.8 |
| 20260504023036 | 73 | 235 | 1.7 | 7.0 | 0.00 | 0.00 | 0.00 | 43 | 993.8 |
| 20260504021532 | 74 | 212 | 0.9 | 5.2 | 0.00 | 0.00 | 0.00 | 40 | 993.8 |
| 20260504020031 | 74 | 94 | 2.6 | 8.7 | 0.00 | 0.00 | 0.00 | 38 | 993.6 |
| 20260504014534 | 75 | 219 | 2.6 | 9.6 | 0.00 | 0.00 | 0.00 | 38 | 993.5 |
| 20260504013035 | 75 | 182 | 1.7 | 9.6 | 0.00 | 0.00 | 0.00 | 37 | 993.4 |
| 20260504011529 | 76 | 186 | 2.6 | 7.0 | 0.00 | 0.00 | 0.00 | 37 | 993.4 |
| 20260504010027 | 76 | 203 | 5.2 | 13.0 | 0.00 | 0.00 | 0.00 | 35 | 993.4 |
| 20260504004526 | 77 | 194 | 1.7 | 9.6 | 0.00 | 0.00 | 0.00 | 36 | 993.3 |
| 20260504003023 | 77 | 221 | 1.7 | 9.6 | 0.00 | 0.00 | 0.00 | 36 | 993.4 |
| 20260504001523 | 78 | 177 | 2.6 | 6.1 | 0.00 | 0.00 | 0.00 | 35 | 993.3 |
| 20260504000020 | 79 | 175 | 1.7 | 9.6 | 0.00 | 0.00 | 0.00 | 34 | 993.5 |
| 20260503234521 | 79 | 219 | 2.6 | 10.4 | 0.00 | 0.00 | 0.00 | 34 | 993.6 |
| 20260503233019 | 80 | 205 | 0.9 | 8.7 | 0.00 | 0.00 | 0.00 | 33 | 993.6 |